Weather in Yaryshiv

Ukraine / Vinnytsia Region     48°30′42″N   27°37′54″E
temp.,
°C
wind,
m/s
gust,
m/s
humid.,
%
clouds,
%
prec.,
mm/h
press.,
hPa
HPBL,
m
11 april, sun
sun1100:00+6se33580 0.0 102544
03:00+5se33620 0.0 102651
06:00+3se22660 0.0 102619
09:00+7sse36550 0.0 1028290
12:00+12sse56390 0.0 10271220
15:00+14sse44320 0.0 10261548
18:00+13se45320 0.0 10251508
21:00+9se33480 0.0 102640
12 april, mon
mon1200:00+7ese22530 0.0 102619
03:00+6ese22590 0.0 102618
06:00+5e22610 0.0 102418
09:00+9ese23510 0.0 1024207
12:00+14se33390 0.0 10231018
15:00+16se22340 0.0 10211380
18:00+16e22350 0.0 10201244
21:00+12e22490 0.0 102111
13 april, tue
tue1300:00+10ese11570 0.0 102010
03:00+9ene11621 0.0 102010
06:00+8ene11662 0.0 101910
09:00+11e23585 0.0 1019231
12:00+16se234462 0.0 10181025
15:00+18se334294 0.0 10171626
18:00+16ese655592 0.0 1016921
21:00+13se5773100 0.0 1016396
14 april, wed
wed1400:00+11se487899 0.0 1015444
03:00+10se4882100 0.1 1014404
06:00+10ese4684100 0.3 1013338
09:00+10sse5878100 0.4 1014525
12:00+9se5881100 0.6 1014409
15:00+12se7867100 0.8 10131023
18:00+11ese5877100 0.1 1012663
21:00+9sse3789100 1.2 1013494
15 april, thu
thu1500:00+9se2690100 1.1 1013501
03:00+8ese3691100 2.8 1012493
06:00+7e4892100 0.6 1012471
09:00+7ene41092100 1.6 1012563
12:00+8ne4887100 0.4 1012391
15:00+10wnw2277100 0.9 1012281
18:00+10nw2479100 0.3 1011123
21:00+10n51181100 0.4 1012512